P/2020 S1 ( PanSTARRS )

Japanese version
Home page
Updated on December 11, 2020

---------------------------------------------------------------------

* Profile

Discovery Date September 16, 2020
Magnitude 21.7 mag
Discoverer Pan-STARRS1 1.8-m Ritchey-Chretien reflector (Haleakala)

* Orbital Elements

Epoch 2021 Jan. 26.0 TT = JDT 2459240.5
T 2021 Jan. 16.94611 TT                                 Rudenko
q   2.9472862            (2000.0)            P               Q
n   0.06739940     Peri.  254.88025     +0.88981062     -0.41789622
a   5.9799660      Node   129.45898     +0.45320407     +0.85622191
e   0.5071400      Incl.   13.73396     -0.05332109     +0.30372156
P  14.6
From 31 observations 2020 July 30-Oct. 10, mean residual 0".3.

* Magnitudes Graph

        m1 = 14.5 + 5 log d + 10.0 log r

---------------------------------------------------------------------

The orbital elements are published on M.P.E.C. 2020-W26.
The magnitudes graphs are made with Comet for Windows.

---------------------------------------------------------------------

Copyright(C) Seiichi Yoshida (comet@aerith.net). All rights reserved.